Regional Weather Roundup
Issued by NWS Little Rock, AR

Home | Current Version | Previous Version | Text Only | Print | Product List | Glossary Off
Versions: 1 2 3 4 5 6 7 8 9 10 11 12 13 14 15 16 17 18 19 20 21 22 23 24 25 26 27 28 29 30 31 32 33 34 35 36 37 38 39 40 41 42 43 44 45 46 47 48 49 50

000
ASUS44 KLZK 270105
RWRLZK

WEATHER ROUNDUP FOR ARKANSAS
NATIONAL WEATHER SERVICE LITTLE ROCK AR
800 PM CDT TUE AUG 26 2014

NOTE: "FAIR" INDICATES FEW OR NO CLOUDS BELOW 12,000 FEET WITH NO
SIGNIFICANT WEATHER AND/OR OBSTRUCTIONS TO VISIBILITY.

ARZ001-003-010-029-270200-
NORTHWEST ARKANSAS

CITY           SKY/WX    TMP DP  RH WIND       PRES   REMARKS
FAYETTEVILLE   CLEAR     84  69  60 SE5       30.06R HX  88
FORT SMITH     CLEAR     90  69  50 E5        29.99R HX  94
HARRISON       CLEAR     83  72  69 CALM      30.08R HX  88
BENTONVILLE    CLEAR     88  64  45 S7        30.07R HX  89
ROGERS         CLEAR     87  65  47 S6        30.08R HX  89
SILOAM SPGS      N/A     86  66  51 S6        30.06R HX  88
HIGHFILL       CLEAR     89  63  41 SE9       30.06R HX  90
SPRINGDALE     PTCLDY    88  66  48 SE8       30.08R HX  90
$$

ARZ004-005-016-270200-
NORTH CENTRAL ARKANSAS

CITY           SKY/WX    TMP DP  RH WIND       PRES   REMARKS
BATESVILLE     PTCLDY    88  72  58 SE5       30.03S HX  94
FLIPPIN        PTCLDY    88  66  48 CALM      30.04S HX  90
MTN HOME       CLEAR     85  70  60 CALM      30.04R HX  89
$$

ARZ040-041-270200-
WEST CENTRAL ARKANSAS

CITY           SKY/WX    TMP DP  RH WIND       PRES   REMARKS
MENA           PTCLDY    82  73  74 CALM      30.05R HX  88
MOUNT IDA      MOCLDY    82  74  76 CALM      30.02S HX  88
$$

ARZ009-017-025-026-028-270200-
NORTHEAST ARKANSAS

CITY           SKY/WX    TMP DP  RH WIND       PRES   REMARKS
CORNING        LGT RAIN  82  75  78 E7        30.04R HX  89
JONESBORO      CLEAR     81  71  71 SE5       30.03R HX  85
NEWPORT        PTCLDY    84  76  77 SE7       30.03S HX  92
WALNUT RIDGE   CLEAR     84  75  74 SE5       30.02R HX  92
BLYTHEVILLE    PTCLDY    80  73  79 CALM      30.04R
$$

ARZ022-023-033-042-044-270200-
CENTRAL ARKANSAS

CITY           SKY/WX    TMP DP  RH WIND       PRES   REMARKS
LITTLE ROCK    PTCLDY    85  72  65 SE5       30.02R HX  91
N LITTLE ROCK  PTCLDY    86  75  71 SE7       30.02R HX  95
JACKSONVILLE   PTCLDY    85  75  73 SE2       30.02R HX  93
SEARCY         PTCLDY    85  76  74 CALM      30.04R HX  94
HOT SPRINGS    MOCLDY    84  74  71 S5        30.03R HX  91
RUSSELLVILLE   PTCLDY    82  73  74 N3        30.02R HX  87
CLINTON        FAIR      82  77  83 CALM      30.05R HX  91
$$

ARZ036-270200-
EAST ARKANSAS

CITY           SKY/WX    TMP DP  RH WIND       PRES   REMARKS
WEST MEMPHIS   MOCLDY    84  75  74 NE5       30.02R HX  92
$$

ARZ050-053-066-070-073-270200-
SOUTHWEST ARKANSAS

CITY           SKY/WX    TMP DP  RH WIND       PRES   REMARKS
ARKADELPHIA    FAIR      80  79  97 CALM      30.02R HX  86
CAMDEN         PTCLDY    77  72  83 CALM      30.01R
TEXARKANA      MOCLDY    78  71  79 NE6       30.01R
EL DORADO      CLEAR     80  74  81 CALM      30.01R HX  85
DE QUEEN       PTCLDY    81  71  71 E3        29.99R HX  85
$$

ARZ056-057-069-270200-
SOUTHEAST ARKANSAS

CITY           SKY/WX    TMP DP  RH WIND       PRES   REMARKS
PINE BLUFF     CLEAR     81  74  79 SE3       30.02R HX  86
STUTTGART      CLEAR     84  73  70 E6        30.04R HX  91
MONTICELLO     CLEAR     81  70  69 CALM      30.02R

$$





USA.gov is the U.S. government's official web portal to all federal, state and local government web resources and services.